Regional Weather Roundup
Issued by NWS

Home | Current Version | Previous Version | Graphics & Text | Print | Product List | Glossary On
Versions: 1 2 3 4 5 6 7 8 9 10 11 12 13 14 15 16 17 18 19 20 21 22 23 24 25 26 27 28 29 30 31 32 33 34 35 36 37 38 39 40 41 42 43 44 45 46 47 48 49 50
000
ASUS43 KLMK 210610
RWRKY
KENTUCKY REGIONAL WEATHER ROUNDUP
NATIONAL WEATHER SERVICE LOUISVILLE KY
200 AM EDT THU SEP 21 2017

NOTE "FAIR" INDICATES FEW OR NO CLOUDS BELOW 12,000 FEET
WITH NO SIGNIFICANT WEATHER AND/OR OBSTRUCTIONS TO VISIBILITY.

KYZ001>023-026-027-061>063-070>075-210700-
WESTERN AND SOUTH CENTRAL KENTUCKY

CITY           SKY/WX    TMP DP  RH WIND       PRES   REMARKS
PADUCAH        CLEAR     78  70  76 S3        29.99R
HENDERSON      CLEAR     73  70  90 S3        30.00S
OWENSBORO      CLEAR     74  71  91 SE3       30.02R
HOPKINSVILLE   CLEAR     74  71  89 CALM      30.02R
BOWLING GREEN  CLEAR     71  70  96 CALM      30.04R
GLASGOW        CLEAR    N/A N/A N/A CALM      30.04R
$$

KYZ024-025-028>034-038-045-046-053-210700-
NORTH CENTRAL KENTUCKY

CITY           SKY/WX    TMP DP  RH WIND       PRES   REMARKS
LOUISVILLE/SDF CLEAR     74  70  87 SE5       30.03R
LOUISVILLE/LOU CLEAR     72  71  97 CALM      30.04R
FORT KNOX      CLEAR     71  71 100 CALM      30.03S
$$

KYZ035>037-039>044-047>052-055>060-089>105-210700-
NORTHEAST KENTUCKY

CITY           SKY/WX    TMP DP  RH WIND       PRES   REMARKS
LEXINGTON      CLEAR     70  65  84 SE3       30.06R
COVINGTON      CLEAR     68  68 100 CALM      30.05R
FRANKFORT      CLEAR     68  65  90 CALM      30.04R
$$

KYZ054-064>069-076>088-106>120-210700-
SOUTHEAST KENTUCKY

CITY           SKY/WX    TMP DP  RH WIND       PRES   REMARKS
JACKSON        CLEAR     69  65  86 CALM      30.08R
LONDON         CLEAR     67  65  93 CALM      30.08R FOG
SOMERSET       CLEAR     66  66 100 CALM      30.08R FOG
MIDDLESBORO    CLEAR     64  64 100 CALM      30.10R
MONTICELLO     FOG       64  64 100 CALM      30.08S VSB 1/4
$$





USA.gov is the U.S. government's official web portal to all federal, state and local government web resources and services.